Theta_e
318 316 315 318 315 314 314 315 319 319 320 319 320 318 320 323 321 318 317 318 319 321
317 318 316 318 319 316 319 316 318 318 319 319 320 320 319 317 318 320 316 316 316 319
317 318 318 318 317 318 319 319 317 317 318 319 320 319 319 322 321 320 322 324 321 322
317 318 317 317 317 318 319 318 315 315 317 317 318 319 321 320 318 318 319 320 319 319
318 319 318 318 317 318 317 317 316 315 315 316 318 319 318 317 316 317 317 317 318 317
319 319 319 319 319 318 317 315 315 315 314 314 316 316 316 318 317 316 316 317 317 317
319 319 318 318 318 318 317 315 315 315 314 314 314 315 316 316 317 318 318 318 319 318
319 317 318 318 319 318 318 317 317 315 315 316 315 311 314 317 317 316 316 317 314 316
317 318 316 317 318 319 319 318 318 317 316 316 312 303 305 309 319 317 319 318 318 319
316 314 317 317 318 318 320 320 319 318 318 317 314 301 302 305 319 320 321 320 319 315
314 313 313 316 317 320 320 321 320 318 318 318 309 299 299 301 316 322 319 318 317 318
316 315 317 313 315 319 318 322 320 318 317 317 317 299 298 302 314 316 318 320 318 318
317 316 316 319 319 318 317 319 318 318 318 309 317 299 298 301 312 316 315 318 321 304
318 318 317 320 321 321 317 316 316 316 320 318 317 314 298 298 309 312 311 315 314 311
Wind_Speed
7 7 7 10 7 6 6 5 7 8 9 11 10 8 9 6 5 7 4 6 5 3
7 9 8 9 8 7 7 8 7 8 8 9 10 6 7 5 5 6 2 4 5 4
8 9 6 7 8 6 7 7 8 9 8 8 9 6 5 5 6 4 3 3 3 3
6 7 7 5 8 8 6 10 8 7 7 6 7 6 6 5 4 6 4 5 6 6
8 7 6 7 6 6 8 7 9 6 8 7 6 6 5 3 5 6 6 5 4 5
9 6 6 6 5 6 7 6 7 5 4 5 4 5 6 12 8 9 7 7 8 10
8 8 4 5 7 7 6 5 6 7 7 6 5 10 11 6 4 5 6 5 5 6
9 6 5 5 7 5 6 5 6 4 5 7 7 7 9 11 7 6 7 7 9 9
3 5 4 4 3 3 5 6 5 6 6 6 8 7 8 9 10 7 7 7 5 6
4 4 5 6 7 7 4 4 5 6 7 8 7 7 7 7 6 2 2 5 5 6
4 3 4 4 4 5 5 4 1 5 5 5 5 4 5 6 9 2 3 3 3 3
5 8 9 4 6 3 4 3 5 1 1 3 5 3 6 9 7 7 3 5 2 5
3 4 4 7 6 4 6 4 7 3 2 4 4 5 2 8 9 3 4 6 7 10
6 8 4 4 6 6 5 6 5 7 3 4 4 5 5 1 7 7 8 3 5 6
Wind_Direction
337 344 349 333 340 319 345 352 344 339 356 360 8 17 356 359 68 70 40 42 7 25
11 10 349 320 313 357 354 329 23 344 358 0 25 37 41 46 52 60 49 12 331 314
3 352 343 325 342 351 350 329 0 346 3 9 33 44 18 32 50 56 0 51 108 68
356 348 339 6 337 348 2 7 348 330 359 19 36 29 8 14 43 61 59 42 42 55
360 332 336 359 355 353 30 356 314 22 359 350 37 23 351 7 38 35 35 50 51 56
12 11 12 22 0 2 59 15 325 17 24 2 13 17 15 35 4 63 25 37 46 36
339 59 36 31 49 49 52 43 22 17 13 358 337 30 11 39 50 63 75 69 84 52
327 47 44 39 24 22 64 55 66 57 8 342 59 32 4 344 51 57 70 66 80 67
48 348 49 359 84 58 1 19 68 56 64 44 60 25 5 351 352 35 49 23 17 116
359 338 344 349 350 2 16 34 13 52 43 64 56 32 3 338 316 257 147 97 44 354
333 335 11 311 356 326 344 343 355 63 45 63 79 39 347 329 277 13 21 52 43 27
5 350 339 12 337 289 307 304 230 79 67 31 99 102 351 342 312 288 260 255 122 17
209 303 333 332 318 317 305 220 282 203 207 109 278 137 26 345 317 300 349 308 98 60
305 323 313 346 326 286 285 328 316 298 245 245 248 150 167 322 309 348 328 350 121 95